Miscellaneous Local Product
Issued by NWS North Platte, NE

Home | Current Version | Previous Version | Text Only | Print | Product List | Glossary On
Versions: 1 2 3 4 5 6 7 8 9 10 11 12 13 14 15 16 17 18 19 20 21 22 23 24 25 26 27 28 29 30 31 32 33 34 35 36 37 38 39 40 41 42 43 44 45 46 47 48 49 50
000
AXUS43 KLBF 211810
MISLBF


WESTERN AND NORTH CENTRAL NEBRASKA HOURLY WEATHER ROUNDUP
NATIONAL WEATHER SERVICE NORTH PLATTE NE
100 PM CDT FRI JUL 21 2017

NOTE: "FAIR" INDICATES FEW OR NO CLOUDS BELOW 12,000 FEET WITH NO
SIGNIFICANT WEATHER AND/OR OBSTRUCTIONS TO VISIBILITY.

NOTE: STATIONS NOT REPORTING VARIABLES SUCH AS SKY/WEATHER OR
PRESSURE ARE PROVIDED BY RAWS AND APRS NETWORKS AND ARE NOT UNDER
NATIONAL WEATHER SERVICE QUALITY CONTROL.

...OBSERVATIONS IN AND NEAR THE EASTERN PANHANDLE OF NEBRASKA...

CITY           SKY/WX    TMP DP  RH WIND       PRES   REMARKS
PINE RIDGE     SUNNY     91  60  35 W12       29.92F HX  90
GORDON         FAIR      87  60  39 W12G18    29.94S
CHADRON        SUNNY     93  51  23 NW16      29.93F HX  90
ALLIANCE       SUNNY     91  53  27 NW15G22   29.99S
SIDNEY         SUNNY     94  48  20 N7        30.05S HX  90
CRESCENT LAKE    N/A     92  53  26 NW12G20     N/A
$$

...OBSERVATIONS IN NORTHERN NEBRASKA AND FAR SOUTHERN SOUTH DAKOTA...

CITY           SKY/WX    TMP DP  RH WIND       PRES   REMARKS
WINNER         FAIR      93  71  48 VRB6      29.82F HX 100
VALENTINE      CLOUDY    96  65  35 N8        29.85S HX  98
THEDFORD       SUNNY     98  60  29 W9G16     29.88S HX  98
AINSWORTH      SUNNY     92  73  52 W6        29.85S HX 100
O`NEILL        SUNNY     87  71  59 N5        29.83S HX  92
ORD            SUNNY     94  71  47 MISG      29.81S HX 101
BROKEN BOW     SUNNY     96  73  47 W8        29.85S HX 105
VALENTINE NWR    N/A     92  67  44 W10         N/A  HX  95
HALSEY           N/A     95  67  39 W7G14       N/A  HX  98
BUTTE            N/A     82  71  69 NE3         N/A
CHAMBERS         N/A     94  73  50 CALM        N/A  HX 103
EWING            N/A     90  74  59 CALM        N/A  HX  99
$$

...OBSERVATIONS IN SOUTHWEST NEBRASKA AND FAR NORTHEAST COLORADO...

CITY           SKY/WX    TMP DP  RH WIND       PRES   REMARKS
HOLYOKE        FAIR      99  52  20 W8        29.99S HX  96
IMPERIAL       SUNNY     96  54  24 NW8       29.95F HX  94
OGALLALA       SUNNY     98  51  20 NW9G16    29.94F HX  95
NORTH PLATTE   SUNNY     95  68  41 W8        29.89S HX  99
MCCOOK         SUNNY     98  69  38 CALM      29.87F HX 104
LEXINGTON      SUNNY     89  75  62 CALM      29.86F HX  99
STAPLETON        N/A     96  66  37 CALM        N/A  HX  99
GOTHENBURG       N/A     93  68  43 W5          N/A  HX  97
CALLAWAY         N/A     92  76  58 W7          N/A  HX 103
$$

...OBSERVATIONS IN CENTRAL LINCOLN COUNTY AREA...

CITY           SKY/WX    TMP DP  RH WIND       PRES   REMARKS
N.P. AIRPORT   SUNNY     95  68  41 W8        29.89S HX  99
N.P. DOWNTOWN    N/A     95  67  39 W3          N/A  HX  98
N.P. SOUTHEAST   N/A     96  67  38 W3          N/A  HX 100
N.P. HILLCREST   N/A     94  65  38 W10         N/A  HX  96
$$

...SOME OBSERVATIONS FROM AROUND THE REGION...

CITY           SKY/WX    TMP DP  RH WIND       PRES   REMARKS
DENVER         MOSUNNY   90  45  21 VRB5      30.12F
LIMON          SUNNY     88  53  30 NE9       30.13F
ASPEN          CLOUDY    79  48  33 NW9       30.33F
LARAMIE        CLOUDY    78  46  32 MISG      30.29S
CASPER         CLOUDY    83  48  29 VRB3      30.13F
CHEYENNE       MOSUNNY   83  42  23 NW15      30.19S
SCOTTSBLUFF    SUNNY     89  58  34 W7        30.01F
GRAND ISLAND   SUNNY     91  71  51 SW14      29.83S HX  97
OMAHA          MOSUNNY   97  71  42 S10       29.80S HX 104
SIOUX FALLS    CLOUDY    82  72  71 E8        29.83R
RAPID CITY     SUNNY     90  57  32 N17G23    29.91S
BISMARCK       MOSUNNY   84  68  58 S7        29.82F
KANSAS CITY    MOSUNNY   94  75  54 S14       29.92F HX 105
HILL CITY      SUNNY    103  59  23 SW7       29.86F HX 103
WICHITA        SUNNY     99  68  36 SW15      29.92F HX 104
DODGE CITY     SUNNY     99  58  25 S16G22    29.95S HX  98
OKLAHOMA CITY  MOSUNNY   97  66  36 S10G20    29.97F HX 100
DALLAS         MOSUNNY   97  72  44 S8        29.98F HX 105
AMARILLO       SUNNY     92  56  29 SW14      30.10F HX  90
$$




USA.gov is the U.S. government's official web portal to all federal, state and local government web resources and services.